Find Starlink 32675

NORAD ID: 62208 Int'l Des: 2024-229 Owner: SPXS Country: US Constellation: starlink operational
LEOCIRCULAR

Live-Position

3D-Globus wird geladen...

Über Starlink 32675

Beschreibung wird geladen...

Nächste Überflüge

Passes for default location (London). Set your location on the main map for personalized predictions.

Höhenverlauf

Loading altitude history...

Zweizeiliger Elementsatz

1 62208U 24229S 26121.99142470 .00031143 00000-0 11356-2 0 9995
2 62208 43.0014 329.6551 0001459 276.5099 83.5587 15.27604384 78719
Epoch: 1. Mai 2026 • Age: 15 hours

Aktueller Status

Höhe 486.7 km
Geschwindigkeit 7.63 km/s
Subsatellitenpunkt 41.77°N, 2.07°W
Startdatum 4. Dez. 2024
Alter 1.4 years
Typ internet

Technische Details

Klassifizierung Payload
Masse 730.00 kg
Trockenmasse 700.00 kg
Gesamtmasse 730.00 kg
Länge 0.30 m
Durchmesser 4.10 m
Spannweite 29.00 m
Form Box + pan
Hersteller SPXS
Bus-Typ Starlink V2M
Phasenstatus In Orbit
Besitzer/Staat SPXS/US

Most Searched